Regional Weather Roundup
Issued by NWS Midland/Odessa, TX

Home | Current Version | Previous Version | Text Only | Print | Product List | Glossary On
Versions: 1 2 3 4 5 6 7 8 9 10 11 12 13 14 15 16 17 18 19 20 21 22 23 24 25 26 27 28 29 30 31 32 33 34 35 36 37 38 39 40 41 42 43 44 45 46 47 48 49 50
000
ASUS44 KMAF 221102
RWRMAF
MIDLAND AREA WEATHER ROUNDUP
NATIONAL WEATHER SERVICE MIDLAND TX
600 AM CDT FRI AUG 22 2014

...IN SOUTHWEST TEXAS AND SOUTHEAST NEW MEXICO...

CITY           SKY/WX    TMP DP  RH WIND       PRES   REMARKS
ALPINE         PTCLDY    67  60  79 SW6       30.19S
ANDREWS        FAIR      75  62  64 SW10      30.07R
ARTESIA        CLEAR     75  59  57 W14G20    30.05R
BIG SPRING     CLEAR     79  59  50 S13       30.06R
CARLSBAD       PTCLDY    77  60  55 W18       30.01S
DRYDEN           N/A     79  60  52 E8        30.01R
FORT STOCKTON  PTCLDY    74  64  71 S9        30.04R
GUAD PASS      CLOUDY    64  59  83 SW31G38   30.19S
HOBBS          NOT AVBL
MARFA          PTCLDY    63  59  88 NE5       30.18S
MIDLAND AIRPK  CLEAR     80  60  51 S10       30.05R
MIDLAND INTL   CLEAR     79  62  56 S15       30.04R
ODESSA         CLEAR     75  61  61 SW10      30.06R
PECOS          PTCLDY    71  64  78 E3        30.01R
PRESIDIO       FAIR      71  68  89 E5        30.04R
SEMINOLE       CLEAR     72  62  71 S8        30.07S
SNYDER         CLEAR     77  62  58 S12       30.05R
WINK           PTCLDY    76  66  71 SE7       30.02R
$$
...OTHER STATIONS IN TEXAS...

CITY           SKY/WX    TMP DP  RH WIND       PRES   REMARKS
ABILENE        CLEAR     79  70  74 S13       30.03R
AMARILLO       PTCLDY    75  61  61 SW18G26   30.04R
AUSTIN         PTCLDY    79  74  84 S8        30.04S
BROWNSVILLE    CLEAR     78  77  96 SE3       30.02S
CORPUS CHRISTI PTCLDY    81  77  88 S12       30.01F
DALLAS FTW     PTCLDY    81  73  76 S16       30.02R
DEL RIO        CLEAR     81  67  62 E7        29.99R
EL PASO        RAIN      65  62  90 S3        30.14R
HOUSTON INT    PTCLDY    78  75  90 CALM      30.06R
LUBBOCK        PTCLDY    76  63  64 S10       30.06R
SAN ANGELO     CLEAR     78  69  73 S12       30.03S
SAN ANTONIO    PTCLDY    80  74  81 S10       30.05S
WACO           CLEAR     79  73  82 S15       30.04R
WICHITA FALLS  NOT AVBL
$$
...OTHER LOCATIONS IN NEW MEXICO...

CITY           SKY/WX    TMP DP  RH WIND       PRES   REMARKS
ALAMAGORDO     LGT RAIN  64  63  94 S10       30.17R
ALBUQUERQUE    MOCLDY    71  46  40 NW8       30.15S
CANNON AFB     PTCLDY    71  61  72 SW9       30.09R
CLOVIS           N/A     70  61  73 S10       30.11R
HOLLOMAN AFB   MOCLDY    66  64  94 S10       30.15R
ROSWELL        PTCLDY    72  59  63 S10       30.04R
RUIDOSO        CLOUDY    64  50  59 SW7       30.26R
SANTA FE       CLOUDY    63  40  42 SE6       30.19R
TRUTH OR CONSE LGT RAIN  68  60  75 S10       30.14R
TUCUMCARI      MOCLDY    76  56  49 S9        30.02S
$$


USA.gov is the U.S. government's official web portal to all federal, state and local government web resources and services.